Yuma MCAS, AZ

11:08 AM MST on October 16, 2019 (GMT -0700)
Yuma Marine Corps Air Station

Weather History for KNYL - September, 2019

Change the Weather History Date:

Thursday, September 19, 2019

  Actual Average Record
Temperature  
Mean Temperature 87 °F 88 °F  
Max Temperature 97 °F 101 °F 113 °F (2010)
Min Temperature 76 °F 76 °F 55 °F (1907)
Degree Days  
Heating Degree Days 0 0  
Month to date heating degree days 0 0  
Since 1 July heating degree days 0 0  
Cooling Degree Days 22 23  
Month to date cooling degree days 520 493  
Year to date cooling degree days 3818 3946  
Growing Degree Days 36 (Base 50)    
Moisture  
Dew Point 34 °F    
Average Humidity 21    
Maximum Humidity 30    
Minimum Humidity 11    
Precipitation  
Precipitation 0.00 in 0.02 in 0.84 in (1935)
Month to date precipitation 0.00 0.36  
Year to date precipitation 0.96 2.45  
Sea Level Pressure  
Sea Level Pressure 29.71 in    
Wind  
Wind Speed 7 mph (WNW)    
Max Wind Speed 20 mph    
Max Gust Speed 25 mph    
Visibility 9 miles    
Events      
T = Trace of Precipitation, MM = Missing Value Source: NWS Daily Summary

Daily Weather History Graph

Daily Weather History Graph

Search for Another Location

Airport or City:

Astronomy

Sep. 19, 2019 Rise Set
Actual Time 6:24 AM MST 6:39 PM MST
Civil Twilight 5:59 AM MST 7:03 PM MST
Nautical Twilight 5:31 AM MST 7:32 PM MST
Astronomical Twilight 5:02 AM MST 8:01 PM MST
Moon 10:07 PM MST (9/19) 11:16 AM MST (9/19)
Length of Visible Light 13h 03m
Length of Day
12h 14m
Waning Gibbous, 73% of the Moon is Illuminated
Sep 19
Waning Gibbous
Sep 21
Last Quarter
Sep 28
New
Oct 5
First Quarter
Oct 13
Full

Hourly Weather History & Observations

Time (MST) Temp. Dew Point Humidity Pressure Visibility Wind Dir Wind Speed Gust Speed Precip Events Conditions
12:57 AM 79.0 °F 28.9 °F 16% 29.73 in 10.0 mi Calm Calm - N/A   Clear
1:57 AM 81.0 °F 30.0 °F 16% 29.73 in 10.0 mi NW 9.2 mph - N/A   Clear
2:57 AM 80.1 °F 32.0 °F 17% 29.73 in 10.0 mi NW 6.9 mph - N/A   Clear
3:57 AM 79.0 °F 28.9 °F 16% 29.73 in 10.0 mi North 5.8 mph - N/A   Clear
4:57 AM 77.0 °F 27.0 °F 16% 29.73 in 10.0 mi NNW 5.8 mph - N/A   Clear
6:57 AM 75.9 °F 25.0 °F 15% 29.75 in 10.0 mi North 3.5 mph - N/A   Clear
7:57 AM 79.0 °F 32.0 °F 18% 29.76 in 7.0 mi Calm Calm - N/A   Clear
8:57 AM 82.9 °F 26.1 °F 13% 29.78 in 7.0 mi WNW 6.9 mph - N/A   Clear
9:57 AM 87.1 °F 27.0 °F 11% 29.78 in 7.0 mi WNW 9.2 mph - N/A   Clear
10:57 AM 90.0 °F 30.9 °F 12% 29.77 in 7.0 mi NW 9.2 mph - N/A   Clear
11:57 AM 91.0 °F 30.0 °F 11% 29.75 in 7.0 mi WSW 5.8 mph - N/A   Partly Cloudy
12:57 PM 93.9 °F 34.0 °F 12% 29.72 in 7.0 mi NW 6.9 mph - N/A   Clear
1:57 PM 95.0 °F 34.0 °F 12% 29.70 in 7.0 mi West 6.9 mph - N/A   Clear
2:57 PM 95.0 °F 32.0 °F 11% 29.68 in 7.0 mi SSW 5.8 mph - N/A   Clear
3:57 PM 96.1 °F 34.0 °F 11% 29.66 in 7.0 mi WSW 10.4 mph - N/A   Clear
4:57 PM 96.1 °F 35.1 °F 12% 29.65 in 10.0 mi WSW 6.9 mph - N/A   Clear
5:57 PM 95.0 °F 36.0 °F 13% 29.64 in 10.0 mi WSW 4.6 mph - N/A   Clear
6:57 PM 91.9 °F 37.9 °F 15% 29.63 in 10.0 mi WSW 6.9 mph - N/A   Clear
7:57 PM 88.0 °F 42.1 °F 20% 29.65 in 10.0 mi NW 9.2 mph - N/A   Clear
8:57 PM 84.9 °F 44.1 °F 24% 29.66 in 10.0 mi WNW 12.7 mph - N/A   Clear
9:57 PM 82.0 °F 44.1 °F 26% 29.68 in 10.0 mi WNW 13.8 mph - N/A   Clear
10:57 PM 80.1 °F 46.0 °F 30% 29.68 in 10.0 mi WNW 11.5 mph - N/A   Clear
11:57 PM 77.0 °F 45.0 °F 32% 29.69 in 10.0 mi WNW 9.2 mph - N/A   Clear